Showing default

COSMOS 2039, 20233

Orbit data source: Space-Track

COSMOS 2039, 20233 is a payload satellite owned by UNKS (CIS) in LEO that was launched on Thu, 14 Sep 1989 UTC via a TSIKLON-3 launch vehicle from the Plesetsk Missile And Space Complex (PKMTR). Payload-class satellites include a variety of spacecraft equipped with specific instruments for various scientific and technological missions. These include communications satellites like Starlink; space stations such as the ISS; scientific satellites like the Hubble; Earth observation satellites from companies like Planet Labs, Umbra, and HawkEye 360; GPS; miniature CubeSats for education and research; and military/defense satellites.

Loading next visibility...
Identifier
20233, 1989-074B
Orbit
LEO
Country
Flag of CISCIS
Related business
Manufacturer
NPO PM
Mission
Defense Communications
Bus & Motor
STRELA-3, Unknown motor
Mass
225 kg wet, 225 kg dry
Launch date (UTC)
1989-09-14 (37 years ago)
Launch vehicle
TSIKLON-3
Launch site
Plesetsk Missile And Space Complex (PKMTR)
Object type
Payload
Rocket body
Debris
Shape & HBR
Cyl + 1 Ant, 3.5 m
Radar Cross Section
1.583 m², Large (>1 m²)

Expand to show TLE details & history
Last TLE update: 11 hours ago

TLE from 11 hours ago
0 COSMOS 2039
1 20233U 89074B   26122.21070449  .00000023  00000-0  63957-4 0  9997
2 20233  82.5832 213.5548 0015671 103.1985 284.0789 12.66282994692784
Epoch: 2026-05-02T05:03Z
TLE epoch observation values (Epoch: 2026-05-02T05:03:24.867Z)
Latitude
26.89256°
Longitude
-78.66399°
Altitude
1,397.315 km
Speed
7.165 km/s
True Right ascension
14h 29m 17s
True Declination
26° 45' 56"
Sunlit
Object was in full shadow at epoch
Visualization orbit readout
Latitude
Unknown
Longitude
Unknown
Altitude
Unknown
Speed
Unknown
Apparent Right ascension
Unknown
Apparent Declination
Unknown
Sunlit
N/A
Visualization observer readout
Local Sidereal Time
23:21:03
Azimuth
Unknown
Elevation
Unknown
Doppler factor
Unknown
Orbital elements
Apogee altitude
1,406.614 km
Perigee altitude
1,382.253 km
Semi-major axis
7,772.57 km
Eccentricity
0.00157
Inclination
82.5832°
RAAN
213.5548°
Arg. of periapsis
103.1985°
True anomaly
283.90463°
Mean anomaly
284.0789°
Eccentric anomaly
283.99178°
Mean motion
3.16735 °/min
Orbital period
113.66 mins
BSTAR
0.000063957
Loading maneuver chart data...
Computing Atmospheric mass density...
Loading historical data...
Loading historical data...
Loading historical data...
Loading historical data...
Loading historical data...
Loading historical data...
Loading historical data...

Documentation

Showing up to 5 results
|